Year,Month,Day,Hour,Minute,Value (Times are PST for barometer in hPa)
2009,05,05,00,00,990.52
2009,05,05,00,01,990.45
2009,05,05,00,02,990.43
2009,05,05,00,03,990.52
2009,05,05,00,04,990.50
2009,05,05,00,05,990.55
2009,05,05,00,06,990.52
2009,05,05,00,07,990.52
2009,05,05,00,08,990.49
2009,05,05,00,09,990.52
2009,05,05,00,10,990.55
2009,05,05,00,11,990.55
2009,05,05,00,12,990.55
2009,05,05,00,13,990.51
2009,05,05,00,14,990.42
2009,05,05,00,15,990.45
2009,05,05,00,16,990.42
2009,05,05,00,17,990.38
2009,05,05,00,18,990.28
2009,05,05,00,19,990.35
2009,05,05,00,20,990.32
2009,05,05,00,21,990.32
2009,05,05,00,22,990.32
2009,05,05,00,23,990.28
2009,05,05,00,24,990.28
2009,05,05,00,25,990.25
2009,05,05,00,26,990.21
2009,05,05,00,27,990.21
2009,05,05,00,28,990.25
2009,05,05,00,29,990.18
2009,05,05,00,30,990.18
2009,05,05,00,31,990.18
2009,05,05,00,32,990.18
2009,05,05,00,33,990.21
2009,05,05,00,34,990.21
2009,05,05,00,35,990.21
2009,05,05,00,36,990.25
2009,05,05,00,37,990.32
2009,05,05,00,38,990.28
2009,05,05,00,39,990.28
2009,05,05,00,40,990.28
2009,05,05,00,41,990.32
2009,05,05,00,42,990.32
2009,05,05,00,43,990.32
2009,05,05,00,44,990.25
2009,05,05,00,45,990.25
2009,05,05,00,46,990.21
2009,05,05,00,47,990.28
2009,05,05,00,48,990.25
2009,05,05,00,49,990.25
2009,05,05,00,50,990.25
2009,05,05,00,51,990.25
2009,05,05,00,52,990.21
2009,05,05,00,53,990.21
2009,05,05,00,54,990.25
2009,05,05,00,55,990.25
2009,05,05,00,56,990.21
2009,05,05,00,57,990.25
2009,05,05,00,58,990.25
2009,05,05,00,59,990.21
2009,05,05,01,00,990.25
2009,05,05,01,01,990.21
2009,05,05,01,02,990.25
2009,05,05,01,03,990.24
2009,05,05,01,04,990.15
2009,05,05,01,05,990.11
2009,05,05,01,06,990.11
2009,05,05,01,07,990.15
2009,05,05,01,08,990.14
2009,05,05,01,09,990.01
2009,05,05,01,10,990.01
2009,05,05,01,11,990.01
2009,05,05,01,12,990.08
2009,05,05,01,13,990.11
2009,05,05,01,14,990.07
2009,05,05,01,15,989.98
2009,05,05,01,16,989.98
2009,05,05,01,17,989.98
2009,05,05,01,18,989.98
2009,05,05,01,19,989.94
2009,05,05,01,20,989.91
2009,05,05,01,21,989.94
2009,05,05,01,22,989.94
2009,05,05,01,23,990.01
2009,05,05,01,24,989.94
2009,05,05,01,25,989.91
2009,05,05,01,26,989.94
2009,05,05,01,27,989.94
2009,05,05,01,28,989.94
2009,05,05,01,29,989.98
2009,05,05,01,30,989.94
2009,05,05,01,31,990.01
2009,05,05,01,32,990.01
2009,05,05,01,33,990.04
2009,05,05,01,34,990.08
2009,05,05,01,35,990.14
2009,05,05,01,36,990.01
2009,05,05,01,37,990.04
2009,05,05,01,38,990.08
2009,05,05,01,39,990.04
2009,05,05,01,40,990.04
2009,05,05,01,41,990.11
2009,05,05,01,42,990.08
2009,05,05,01,43,990.15
2009,05,05,01,44,990.08
2009,05,05,01,45,990.04
2009,05,05,01,46,990.11
2009,05,05,01,47,990.08
2009,05,05,01,48,990.11
2009,05,05,01,49,990.08
2009,05,05,01,50,990.11
2009,05,05,01,51,990.18
2009,05,05,01,52,990.25
2009,05,05,01,53,990.28
2009,05,05,01,54,990.32
2009,05,05,01,55,990.32
2009,05,05,01,56,990.32
2009,05,05,01,57,990.28
2009,05,05,01,58,990.25
2009,05,05,01,59,990.32
2009,05,05,02,00,990.35
2009,05,05,02,01,990.35
2009,05,05,02,02,990.35
2009,05,05,02,03,990.35
2009,05,05,02,04,990.35
2009,05,05,02,05,990.38
2009,05,05,02,06,990.38
2009,05,05,02,07,990.35
2009,05,05,02,08,990.42
2009,05,05,02,09,990.42
2009,05,05,02,10,990.42
2009,05,05,02,11,990.42
2009,05,05,02,12,990.35
2009,05,05,02,13,990.35
2009,05,05,02,14,990.38
2009,05,05,02,15,990.38
2009,05,05,02,16,990.38
2009,05,05,02,17,990.42
2009,05,05,02,18,990.45
2009,05,05,02,19,990.38
2009,05,05,02,20,990.42
2009,05,05,02,21,990.45
2009,05,05,02,22,990.42
2009,05,05,02,23,990.42
2009,05,05,02,24,990.35
2009,05,05,02,25,990.38
2009,05,05,02,26,990.35
2009,05,05,02,27,990.32
2009,05,05,02,28,990.28
2009,05,05,02,29,990.28
2009,05,05,02,30,990.32
2009,05,05,02,31,990.32
2009,05,05,02,32,990.32
2009,05,05,02,33,990.28
2009,05,05,02,34,990.35
2009,05,05,02,35,990.42
2009,05,05,02,36,990.49
2009,05,05,02,37,990.45
2009,05,05,02,38,990.45
2009,05,05,02,39,990.45
2009,05,05,02,40,990.45
2009,05,05,02,41,990.49
2009,05,05,02,42,990.52
2009,05,05,02,43,990.52
2009,05,05,02,44,990.53
2009,05,05,02,45,990.62
2009,05,05,02,46,990.55
2009,05,05,02,47,990.59
2009,05,05,02,48,990.66
2009,05,05,02,49,990.76
2009,05,05,02,50,990.82
2009,05,05,02,51,990.79
2009,05,05,02,52,990.79
2009,05,05,02,53,990.76
2009,05,05,02,54,990.77
2009,05,05,02,55,990.86
2009,05,05,02,56,990.89
2009,05,05,02,57,990.86
2009,05,05,02,58,990.86
2009,05,05,02,59,990.86
2009,05,05,03,00,990.82
2009,05,05,03,01,990.82
2009,05,05,03,02,990.82
2009,05,05,03,03,990.82
2009,05,05,03,04,990.76
2009,05,05,03,05,990.76
2009,05,05,03,06,990.82
2009,05,05,03,07,990.79
2009,05,05,03,08,990.72
2009,05,05,03,09,990.72
2009,05,05,03,10,990.69
2009,05,05,03,11,990.76
2009,05,05,03,12,990.79
2009,05,05,03,13,990.82
2009,05,05,03,14,990.79
2009,05,05,03,15,990.82
2009,05,05,03,16,990.82
2009,05,05,03,17,990.82
2009,05,05,03,18,990.86
2009,05,05,03,19,990.89
2009,05,05,03,20,990.89
2009,05,05,03,21,990.89
2009,05,05,03,22,990.86
2009,05,05,03,23,990.93
2009,05,05,03,24,990.93
2009,05,05,03,25,990.93
2009,05,05,03,26,990.96
2009,05,05,03,27,990.99
2009,05,05,03,28,990.96
2009,05,05,03,29,990.96
2009,05,05,03,30,990.99
2009,05,05,03,31,991.03
2009,05,05,03,32,991.04
2009,05,05,03,33,991.09
2009,05,05,03,34,991.09
2009,05,05,03,35,991.13
2009,05,05,03,36,991.12
2009,05,05,03,37,991.07
2009,05,05,03,38,991.16
2009,05,05,03,39,991.20
2009,05,05,03,40,991.20
2009,05,05,03,41,991.20
2009,05,05,03,42,991.20
2009,05,05,03,43,991.17
2009,05,05,03,44,991.23
2009,05,05,03,45,991.26
2009,05,05,03,46,991.26
2009,05,05,03,47,991.23
2009,05,05,03,48,991.26
2009,05,05,03,49,991.30
2009,05,05,03,50,991.30
2009,05,05,03,51,991.30
2009,05,05,03,52,991.33
2009,05,05,03,53,991.30
2009,05,05,03,54,991.30
2009,05,05,03,55,991.30
2009,05,05,03,56,991.33
2009,05,05,03,57,991.37
2009,05,05,03,58,991.37
2009,05,05,03,59,991.37
2009,05,05,04,00,991.37
2009,05,05,04,01,991.37
2009,05,05,04,02,991.35
2009,05,05,04,03,991.47
2009,05,05,04,04,991.42
2009,05,05,04,05,991.40
2009,05,05,04,06,991.41
2009,05,05,04,07,991.47
2009,05,05,04,08,991.47
2009,05,05,04,09,991.51
2009,05,05,04,10,991.57
2009,05,05,04,11,991.57
2009,05,05,04,12,991.57
2009,05,05,04,13,991.57
2009,05,05,04,14,991.57
2009,05,05,04,15,991.60
2009,05,05,04,16,991.64
2009,05,05,04,17,991.64
2009,05,05,04,18,991.63
2009,05,05,04,19,991.57
2009,05,05,04,20,991.58
2009,05,05,04,21,991.64
2009,05,05,04,22,991.67
2009,05,05,04,23,991.67
2009,05,05,04,24,991.67
2009,05,05,04,25,991.67
2009,05,05,04,26,991.65
2009,05,05,04,27,991.70
2009,05,05,04,28,991.71
2009,05,05,04,29,991.77
2009,05,05,04,30,991.78
2009,05,05,04,31,991.91
2009,05,05,04,32,991.92
2009,05,05,04,33,991.98
2009,05,05,04,34,991.94
2009,05,05,04,35,991.99
2009,05,05,04,36,992.04
2009,05,05,04,37,992.04
2009,05,05,04,38,992.09
2009,05,05,04,39,992.15
2009,05,05,04,40,992.21
2009,05,05,04,41,992.18
2009,05,05,04,42,992.15
2009,05,05,04,43,992.21
2009,05,05,04,44,992.18
2009,05,05,04,45,992.21
2009,05,05,04,46,992.23
2009,05,05,04,47,992.35
2009,05,05,04,48,992.38
2009,05,05,04,49,992.42
2009,05,05,04,50,992.42
2009,05,05,04,51,992.46
2009,05,05,04,52,992.55
2009,05,05,04,53,992.52
2009,05,05,04,54,992.55
2009,05,05,04,55,992.55
2009,05,05,04,56,992.56
2009,05,05,04,57,992.62
2009,05,05,04,58,992.66
2009,05,05,04,59,992.72
2009,05,05,05,00,992.72
2009,05,05,05,01,992.75
2009,05,05,05,02,992.79
2009,05,05,05,03,992.82
2009,05,05,05,04,992.86
2009,05,05,05,05,992.89
2009,05,05,05,06,992.92
2009,05,05,05,07,992.96
2009,05,05,05,08,992.96
2009,05,05,05,09,992.91
2009,05,05,05,10,992.87
2009,05,05,05,11,992.92
2009,05,05,05,12,992.97
2009,05,05,05,13,993.03
2009,05,05,05,14,993.03
2009,05,05,05,15,993.06
2009,05,05,05,16,993.09
2009,05,05,05,17,993.14
2009,05,05,05,18,993.19
2009,05,05,05,19,993.19
2009,05,05,05,20,993.23
2009,05,05,05,21,993.26
2009,05,05,05,22,993.30
2009,05,05,05,23,993.34
2009,05,05,05,24,993.36
2009,05,05,05,25,993.40
2009,05,05,05,26,993.43
2009,05,05,05,27,993.43
2009,05,05,05,28,993.41
2009,05,05,05,29,993.47
2009,05,05,05,30,993.47
2009,05,05,05,31,993.47
2009,05,05,05,32,993.50
2009,05,05,05,33,993.47
2009,05,05,05,34,993.50
2009,05,05,05,35,993.53
2009,05,05,05,36,993.54
2009,05,05,05,37,993.60
2009,05,05,05,38,993.61
2009,05,05,05,39,993.67
2009,05,05,05,40,993.70
2009,05,05,05,41,993.70
2009,05,05,05,42,993.74
2009,05,05,05,43,993.75
2009,05,05,05,44,993.80
2009,05,05,05,45,993.80
2009,05,05,05,46,993.80
2009,05,05,05,47,993.85
2009,05,05,05,48,993.91
2009,05,05,05,49,993.94
2009,05,05,05,50,993.97
2009,05,05,05,51,994.01
2009,05,05,05,52,994.01
2009,05,05,05,53,994.05
2009,05,05,05,54,994.12
2009,05,05,05,55,994.18
2009,05,05,05,56,994.21
2009,05,05,05,57,994.24
2009,05,05,05,58,994.27
2009,05,05,05,59,994.22
2009,05,05,06,00,994.28
2009,05,05,06,01,994.31
2009,05,05,06,02,994.31
2009,05,05,06,03,994.35
2009,05,05,06,04,994.38
2009,05,05,06,05,994.38
2009,05,05,06,06,994.41
2009,05,05,06,07,994.41
2009,05,05,06,08,994.45
2009,05,05,06,09,994.48
2009,05,05,06,10,994.49
2009,05,05,06,11,994.55
2009,05,05,06,12,994.58
2009,05,05,06,13,994.53
2009,05,05,06,14,994.58
2009,05,05,06,15,994.58
2009,05,05,06,16,994.58
2009,05,05,06,17,994.62
2009,05,05,06,18,994.63
2009,05,05,06,19,994.72
2009,05,05,06,20,994.75
2009,05,05,06,21,994.75
2009,05,05,06,22,994.82
2009,05,05,06,23,994.86
2009,05,05,06,24,994.92
2009,05,05,06,25,994.92
2009,05,05,06,26,994.93
2009,05,05,06,27,994.99
2009,05,05,06,28,994.96
2009,05,05,06,29,994.96
2009,05,05,06,30,994.96
2009,05,05,06,31,994.99
2009,05,05,06,32,995.03
2009,05,05,06,33,995.09
2009,05,05,06,34,995.12
2009,05,05,06,35,995.16
2009,05,05,06,36,995.16
2009,05,05,06,37,995.19
2009,05,05,06,38,995.23
2009,05,05,06,39,995.23
2009,05,05,06,40,995.27
2009,05,05,06,41,995.40
2009,05,05,06,42,995.41
2009,05,05,06,43,995.50
2009,05,05,06,44,995.56
2009,05,05,06,45,995.60
2009,05,05,06,46,995.60
2009,05,05,06,47,995.64
2009,05,05,06,48,995.71
2009,05,05,06,49,995.77
2009,05,05,06,50,995.73
2009,05,05,06,51,995.78
2009,05,05,06,52,995.84
2009,05,05,06,53,995.81
2009,05,05,06,54,995.91
2009,05,05,06,55,996.01
2009,05,05,06,56,995.97
2009,05,05,06,57,996.02
2009,05,05,06,58,996.07
2009,05,05,06,59,996.07
2009,05,05,07,00,996.11
2009,05,05,07,01,996.14
2009,05,05,07,02,996.15
2009,05,05,07,03,996.21
2009,05,05,07,04,996.21
2009,05,05,07,05,996.22
2009,05,05,07,06,996.28
2009,05,05,07,07,996.32
2009,05,05,07,08,996.38
2009,05,05,07,09,996.41
2009,05,05,07,10,996.41
2009,05,05,07,11,996.45
2009,05,05,07,12,996.49
2009,05,05,07,13,996.58
2009,05,05,07,14,996.59
2009,05,05,07,15,996.66
2009,05,05,07,16,996.72
2009,05,05,07,17,996.72
2009,05,05,07,18,996.72
2009,05,05,07,19,996.75
2009,05,05,07,20,996.79
2009,05,05,07,21,996.86
2009,05,05,07,22,996.92
2009,05,05,07,23,996.92
2009,05,05,07,24,996.96
2009,05,05,07,25,997.02
2009,05,05,07,26,997.05
2009,05,05,07,27,997.09
2009,05,05,07,28,997.10
2009,05,05,07,29,997.16
2009,05,05,07,30,997.22
2009,05,05,07,31,997.27
2009,05,05,07,32,997.35
2009,05,05,07,33,997.30
2009,05,05,07,34,997.40
2009,05,05,07,35,997.46
2009,05,05,07,36,997.50
2009,05,05,07,37,997.47
2009,05,05,07,38,997.60
2009,05,05,07,39,997.60
2009,05,05,07,40,997.56
2009,05,05,07,41,997.57
2009,05,05,07,42,997.63
2009,05,05,07,43,997.63
2009,05,05,07,44,997.66
2009,05,05,07,45,997.66
2009,05,05,07,46,997.73
2009,05,05,07,47,997.77
2009,05,05,07,48,997.73
2009,05,05,07,49,997.73
2009,05,05,07,50,997.74
2009,05,05,07,51,997.80
2009,05,05,07,52,997.80
2009,05,05,07,53,997.80
2009,05,05,07,54,997.84
2009,05,05,07,55,997.90
2009,05,05,07,56,997.94
2009,05,05,07,57,997.94
2009,05,05,07,58,997.94
2009,05,05,07,59,998.00
2009,05,05,08,00,997.95
2009,05,05,08,01,998.04
2009,05,05,08,02,998.04
2009,05,05,08,03,998.07
2009,05,05,08,04,998.10
2009,05,05,08,05,998.10
2009,05,05,08,06,998.14
2009,05,05,08,07,998.17
2009,05,05,08,08,998.17
2009,05,05,08,09,998.22
2009,05,05,08,10,998.27
2009,05,05,08,11,998.24
2009,05,05,08,12,998.27
2009,05,05,08,13,998.32
2009,05,05,08,14,998.41
2009,05,05,08,15,998.48
2009,05,05,08,16,998.44
2009,05,05,08,17,998.52
2009,05,05,08,18,998.58
2009,05,05,08,19,998.59
2009,05,05,08,20,998.66
2009,05,05,08,21,998.75
2009,05,05,08,22,998.71
2009,05,05,08,23,998.75
2009,05,05,08,24,998.75
2009,05,05,08,25,998.78
2009,05,05,08,26,998.82
2009,05,05,08,27,998.85
2009,05,05,08,28,998.88
2009,05,05,08,29,998.88
2009,05,05,08,30,998.92
2009,05,05,08,31,998.96
2009,05,05,08,32,999.02
2009,05,05,08,33,999.05
2009,05,05,08,34,999.02
2009,05,05,08,35,999.05
2009,05,05,08,36,999.09
2009,05,05,08,37,999.09
2009,05,05,08,38,999.15
2009,05,05,08,39,999.20
2009,05,05,08,40,999.26
2009,05,05,08,41,999.29
2009,05,05,08,42,999.36
2009,05,05,08,43,999.39
2009,05,05,08,44,999.45
2009,05,05,08,45,999.39
2009,05,05,08,46,999.39
2009,05,05,08,47,999.43
2009,05,05,08,48,999.46
2009,05,05,08,49,999.49
2009,05,05,08,50,999.53
2009,05,05,08,51,999.49
2009,05,05,08,52,999.46
2009,05,05,08,53,999.46
2009,05,05,08,54,999.50
2009,05,05,08,55,999.56
2009,05,05,08,56,999.59
2009,05,05,08,57,999.59
2009,05,05,08,58,999.63
2009,05,05,08,59,999.66
2009,05,05,09,00,999.66
2009,05,05,09,01,999.71
2009,05,05,09,02,999.77
2009,05,05,09,03,999.83
2009,05,05,09,04,999.83
2009,05,05,09,05,999.80
2009,05,05,09,06,999.87
2009,05,05,09,07,999.87
2009,05,05,09,08,999.90
2009,05,05,09,09,999.93
2009,05,05,09,10,999.90
2009,05,05,09,11,999.97
2009,05,05,09,12,999.94
2009,05,05,09,13,1000.01
2009,05,05,09,14,1000.07
2009,05,05,09,15,1000.11
2009,05,05,09,16,1000.21
2009,05,05,09,17,1000.27
2009,05,05,09,18,1000.31
2009,05,05,09,19,1000.31
2009,05,05,09,20,1000.32
2009,05,05,09,21,1000.37
2009,05,05,09,22,1000.41
2009,05,05,09,23,1000.45
2009,05,05,09,24,1000.52
2009,05,05,09,25,1000.58
2009,05,05,09,26,1000.64
2009,05,05,09,27,1000.65
2009,05,05,09,28,1000.75
2009,05,05,09,29,1000.81
2009,05,05,09,30,1000.78
2009,05,05,09,31,1000.82
2009,05,05,09,32,1000.88
2009,05,05,09,33,1000.86
2009,05,05,09,34,1000.98
2009,05,05,09,35,1000.98
2009,05,05,09,36,1001.02
2009,05,05,09,37,1001.05
2009,05,05,09,38,1001.05
2009,05,05,09,39,1001.02
2009,05,05,09,40,1001.03
2009,05,05,09,41,1001.08
2009,05,05,09,42,1001.08
2009,05,05,09,43,1001.12
2009,05,05,09,44,1001.12
2009,05,05,09,45,1001.12
2009,05,05,09,46,1001.12
2009,05,05,09,47,1001.08
2009,05,05,09,48,1001.12
2009,05,05,09,49,1001.08
2009,05,05,09,50,1001.13
2009,05,05,09,51,1001.19
2009,05,05,09,52,1001.15
2009,05,05,09,53,1001.15
2009,05,05,09,54,1001.22
2009,05,05,09,55,1001.25
2009,05,05,09,56,1001.29
2009,05,05,09,57,1001.36
2009,05,05,09,58,1001.29
2009,05,05,09,59,1001.29
2009,05,05,10,00,1001.29
2009,05,05,10,01,1001.36
2009,05,05,10,02,1001.36
2009,05,05,10,03,1001.39
2009,05,05,10,04,1001.39
2009,05,05,10,05,1001.39
2009,05,05,10,06,1001.42
2009,05,05,10,07,1001.46
2009,05,05,10,08,1001.47
2009,05,05,10,09,1001.52
2009,05,05,10,10,1001.56
2009,05,05,10,11,1001.63
2009,05,05,10,12,1001.66
2009,05,05,10,13,1001.69
2009,05,05,10,14,1001.73
2009,05,05,10,15,1001.77
2009,05,05,10,16,1001.86
2009,05,05,10,17,1001.86
2009,05,05,10,18,1001.93
2009,05,05,10,19,1001.93
2009,05,05,10,20,1001.97
2009,05,05,10,21,1001.93
2009,05,05,10,22,1001.97
2009,05,05,10,23,1002.00
2009,05,05,10,24,1002.00
2009,05,05,10,25,1001.98
2009,05,05,10,26,1002.03
2009,05,05,10,27,1002.08
2009,05,05,10,28,1002.17
2009,05,05,10,29,1002.20
2009,05,05,10,30,1002.24
2009,05,05,10,31,1002.27
2009,05,05,10,32,1002.30
2009,05,05,10,33,1002.31
2009,05,05,10,34,1002.37
2009,05,05,10,35,1002.41
2009,05,05,10,36,1002.41
2009,05,05,10,37,1002.41
2009,05,05,10,38,1002.41
2009,05,05,10,39,1002.44
2009,05,05,10,40,1002.44
2009,05,05,10,41,1002.47
2009,05,05,10,42,1002.46
2009,05,05,10,43,1002.41
2009,05,05,10,44,1002.44
2009,05,05,10,45,1002.47
2009,05,05,10,46,1002.51
2009,05,05,10,47,1002.54
2009,05,05,10,48,1002.54
2009,05,05,10,49,1002.54
2009,05,05,10,50,1002.61
2009,05,05,10,51,1002.64
2009,05,05,10,52,1002.68
2009,05,05,10,53,1002.68
2009,05,05,10,54,1002.61
2009,05,05,10,55,1002.61
2009,05,05,10,56,1002.68
2009,05,05,10,57,1002.74
2009,05,05,10,58,1002.74
2009,05,05,10,59,1002.78
2009,05,05,11,00,1002.81
2009,05,05,11,01,1002.85
2009,05,05,11,02,1002.84
2009,05,05,11,03,1002.78
2009,05,05,11,04,1002.82
2009,05,05,11,05,1002.91
2009,05,05,11,06,1002.91
2009,05,05,11,07,1002.91
2009,05,05,11,08,1002.95
2009,05,05,11,09,1002.91
2009,05,05,11,10,1002.98
2009,05,05,11,11,1003.01
2009,05,05,11,12,1003.08
2009,05,05,11,13,1003.08
2009,05,05,11,14,1003.08
2009,05,05,11,15,1003.12
2009,05,05,11,16,1003.15
2009,05,05,11,17,1003.18
2009,05,05,11,18,1003.16
2009,05,05,11,19,1003.25
2009,05,05,11,20,1003.25
2009,05,05,11,21,1003.25
2009,05,05,11,22,1003.32
2009,05,05,11,23,1003.39
2009,05,05,11,24,1003.40
2009,05,05,11,25,1003.49
2009,05,05,11,26,1003.56
2009,05,05,11,27,1003.59
2009,05,05,11,28,1003.59
2009,05,05,11,29,1003.56
2009,05,05,11,30,1003.62
2009,05,05,11,31,1003.60
2009,05,05,11,32,1003.66
2009,05,05,11,33,1003.69
2009,05,05,11,34,1003.74
2009,05,05,11,35,1003.79
2009,05,05,11,36,1003.83
2009,05,05,11,37,1003.83
2009,05,05,11,38,1003.79
2009,05,05,11,39,1003.86
2009,05,05,11,40,1003.86
2009,05,05,11,41,1003.86
2009,05,05,11,42,1003.90
2009,05,05,11,43,1003.91
2009,05,05,11,44,1004.00
2009,05,05,11,45,1004.00
2009,05,05,11,46,1003.96
2009,05,05,11,47,1004.03
2009,05,05,11,48,1004.04
2009,05,05,11,49,1004.11
2009,05,05,11,50,1004.20
2009,05,05,11,51,1004.17
2009,05,05,11,52,1004.20
2009,05,05,11,53,1004.24
2009,05,05,11,54,1004.34
2009,05,05,11,55,1004.34
2009,05,05,11,56,1004.37
2009,05,05,11,57,1004.40
2009,05,05,11,58,1004.44
2009,05,05,11,59,1004.47
2009,05,05,12,00,1004.50
2009,05,05,12,01,1004.54
2009,05,05,12,02,1004.57
2009,05,05,12,03,1004.60
2009,05,05,12,04,1004.50
2009,05,05,12,05,1004.57
2009,05,05,12,06,1004.55
2009,05,05,12,07,1004.61
2009,05,05,12,08,1004.61
2009,05,05,12,09,1004.57
2009,05,05,12,10,1004.64
2009,05,05,12,11,1004.67
2009,05,05,12,12,1004.67
2009,05,05,12,13,1004.74
2009,05,05,12,14,1004.74
2009,05,05,12,15,1004.81
2009,05,05,12,16,1004.81
2009,05,05,12,17,1004.84
2009,05,05,12,18,1004.84
2009,05,05,12,19,1004.88
2009,05,05,12,20,1004.88
2009,05,05,12,21,1004.90
2009,05,05,12,22,1004.84
2009,05,05,12,23,1004.85
2009,05,05,12,24,1004.91
2009,05,05,12,25,1004.95
2009,05,05,12,26,1004.88
2009,05,05,12,27,1004.95
2009,05,05,12,28,1004.95
2009,05,05,12,29,1004.95
2009,05,05,12,30,1004.95
2009,05,05,12,31,1004.98
2009,05,05,12,32,1005.02
2009,05,05,12,33,1005.11
2009,05,05,12,34,1005.15
2009,05,05,12,35,1005.16
2009,05,05,12,36,1005.22
2009,05,05,12,37,1005.25
2009,05,05,12,38,1005.28
2009,05,05,12,39,1005.29
2009,05,05,12,40,1005.35
2009,05,05,12,41,1005.32
2009,05,05,12,42,1005.32
2009,05,05,12,43,1005.32
2009,05,05,12,44,1005.35
2009,05,05,12,45,1005.35
2009,05,05,12,46,1005.35
2009,05,05,12,47,1005.39
2009,05,05,12,48,1005.35
2009,05,05,12,49,1005.35
2009,05,05,12,50,1005.35
2009,05,05,12,51,1005.39
2009,05,05,12,52,1005.42
2009,05,05,12,53,1005.45
2009,05,05,12,54,1005.49
2009,05,05,12,55,1005.52
2009,05,05,12,56,1005.52
2009,05,05,12,57,1005.52
2009,05,05,12,58,1005.49
2009,05,05,12,59,1005.49
2009,05,05,13,00,1005.52
2009,05,05,13,01,1005.45
2009,05,05,13,02,1005.49
2009,05,05,13,03,1005.52
2009,05,05,13,04,1005.55
2009,05,05,13,05,1005.59
2009,05,05,13,06,1005.62
2009,05,05,13,07,1005.59
2009,05,05,13,08,1005.62
2009,05,05,13,09,1005.66
2009,05,05,13,10,1005.69
2009,05,05,13,11,1005.66
2009,05,05,13,12,1005.69
2009,05,05,13,13,1005.69
2009,05,05,13,14,1005.72
2009,05,05,13,15,1005.76
2009,05,05,13,16,1005.72
2009,05,05,13,17,1005.72
2009,05,05,13,18,1005.69
2009,05,05,13,19,1005.72
2009,05,05,13,20,1005.79
2009,05,05,13,21,1005.79
2009,05,05,13,22,1005.76
2009,05,05,13,23,1005.76
2009,05,05,13,24,1005.72
2009,05,05,13,25,1005.72
2009,05,05,13,26,1005.79
2009,05,05,13,27,1005.79
2009,05,05,13,28,1005.76
2009,05,05,13,29,1005.79
2009,05,05,13,30,1005.76
2009,05,05,13,31,1005.79
2009,05,05,13,32,1005.79
2009,05,05,13,33,1005.83
2009,05,05,13,34,1005.83
2009,05,05,13,35,1005.89
2009,05,05,13,36,1005.89
2009,05,05,13,37,1005.96
2009,05,05,13,38,1006.00
2009,05,05,13,39,1006.07
2009,05,05,13,40,1006.23
2009,05,05,13,41,1006.16
2009,05,05,13,42,1006.10
2009,05,05,13,43,1006.13
2009,05,05,13,44,1006.16
2009,05,05,13,45,1006.20
2009,05,05,13,46,1006.20
2009,05,05,13,47,1006.23
2009,05,05,13,48,1006.20
2009,05,05,13,49,1006.20
2009,05,05,13,50,1006.23
2009,05,05,13,51,1006.27
2009,05,05,13,52,1006.30
2009,05,05,13,53,1006.34
2009,05,05,13,54,1006.44
2009,05,05,13,55,1006.40
2009,05,05,13,56,1006.37
2009,05,05,13,57,1006.40
2009,05,05,13,58,1006.38
2009,05,05,13,59,1006.47
2009,05,05,14,00,1006.44
2009,05,05,14,01,1006.47
2009,05,05,14,02,1006.47
2009,05,05,14,03,1006.50
2009,05,05,14,04,1006.54
2009,05,05,14,05,1006.57
2009,05,05,14,06,1006.60
2009,05,05,14,07,1006.60
2009,05,05,14,08,1006.57
2009,05,05,14,09,1006.57
2009,05,05,14,10,1006.54
2009,05,05,14,11,1006.60
2009,05,05,14,12,1006.60
2009,05,05,14,13,1006.67
2009,05,05,14,14,1006.66
2009,05,05,14,15,1006.57
2009,05,05,14,16,1006.64
2009,05,05,14,17,1006.60
2009,05,05,14,18,1006.60
2009,05,05,14,19,1006.64
2009,05,05,14,20,1006.71
2009,05,05,14,21,1006.76
2009,05,05,14,22,1006.64
2009,05,05,14,23,1006.71
2009,05,05,14,24,1006.68
2009,05,05,14,25,1006.76
2009,05,05,14,26,1006.68
2009,05,05,14,27,1006.81
2009,05,05,14,28,1006.88
2009,05,05,14,29,1006.94
2009,05,05,14,30,1007.01
2009,05,05,14,31,1007.08
2009,05,05,14,32,1007.01
2009,05,05,14,33,1007.02
2009,05,05,14,34,1007.12
2009,05,05,14,35,1007.24
2009,05,05,14,36,1007.11
2009,05,05,14,37,1007.15
2009,05,05,14,38,1007.15
2009,05,05,14,39,1007.19
2009,05,05,14,40,1007.28
2009,05,05,14,41,1007.32
2009,05,05,14,42,1007.28
2009,05,05,14,43,1007.38
2009,05,05,14,44,1007.37
2009,05,05,14,45,1007.22
2009,05,05,14,46,1007.33
2009,05,05,14,47,1007.42
2009,05,05,14,48,1007.38
2009,05,05,14,49,1007.42
2009,05,05,14,50,1007.48
2009,05,05,14,51,1007.52
2009,05,05,14,52,1007.45
2009,05,05,14,53,1007.43
2009,05,05,14,54,1007.52
2009,05,05,14,55,1007.52
2009,05,05,14,56,1007.52
2009,05,05,14,57,1007.48
2009,05,05,14,58,1007.48
2009,05,05,14,59,1007.52
2009,05,05,15,00,1007.55
2009,05,05,15,01,1007.52
2009,05,05,15,02,1007.53
2009,05,05,15,03,1007.62
2009,05,05,15,04,1007.55
2009,05,05,15,05,1007.59
2009,05,05,15,06,1007.65
2009,05,05,15,07,1007.69
2009,05,05,15,08,1007.65
2009,05,05,15,09,1007.69
2009,05,05,15,10,1007.72
2009,05,05,15,11,1007.69
2009,05,05,15,12,1007.69
2009,05,05,15,13,1007.69
2009,05,05,15,14,1007.65
2009,05,05,15,15,1007.62
2009,05,05,15,16,1007.65
2009,05,05,15,17,1007.62
2009,05,05,15,18,1007.62
2009,05,05,15,19,1007.69
2009,05,05,15,20,1007.69
2009,05,05,15,21,1007.72
2009,05,05,15,22,1007.62
2009,05,05,15,23,1007.69
2009,05,05,15,24,1007.65
2009,05,05,15,25,1007.62
2009,05,05,15,26,1007.65
2009,05,05,15,27,1007.62
2009,05,05,15,28,1007.69
2009,05,05,15,29,1007.69
2009,05,05,15,30,1007.69
2009,05,05,15,31,1007.72
2009,05,05,15,32,1007.72
2009,05,05,15,33,1007.76
2009,05,05,15,34,1007.76
2009,05,05,15,35,1007.72
2009,05,05,15,36,1007.76
2009,05,05,15,37,1007.72
2009,05,05,15,38,1007.76
2009,05,05,15,39,1007.76
2009,05,05,15,40,1007.68
2009,05,05,15,41,1007.60
2009,05,05,15,42,1007.69
2009,05,05,15,43,1007.76
2009,05,05,15,44,1007.76
2009,05,05,15,45,1007.76
2009,05,05,15,46,1007.78
2009,05,05,15,47,1007.69
2009,05,05,15,48,1007.69
2009,05,05,15,49,1007.76
2009,05,05,15,50,1007.82
2009,05,05,15,51,1007.82
2009,05,05,15,52,1007.82
2009,05,05,15,53,1007.86
2009,05,05,15,54,1007.86
2009,05,05,15,55,1007.86
2009,05,05,15,56,1007.89
2009,05,05,15,57,1007.96
2009,05,05,15,58,1007.96
2009,05,05,15,59,1008.03
2009,05,05,16,00,1007.99
2009,05,05,16,01,1008.06
2009,05,05,16,02,1008.06
2009,05,05,16,03,1008.03
2009,05,05,16,04,1008.06
2009,05,05,16,05,1008.03
2009,05,05,16,06,1008.13
2009,05,05,16,07,1008.06
2009,05,05,16,08,1008.13
2009,05,05,16,09,1008.13
2009,05,05,16,10,1008.13
2009,05,05,16,11,1008.16
2009,05,05,16,12,1008.16
2009,05,05,16,13,1008.20
2009,05,05,16,14,1008.19
2009,05,05,16,15,1008.10
2009,05,05,16,16,1008.23
2009,05,05,16,17,1008.20
2009,05,05,16,18,1008.23